Time,TemperatureF,DewpointF,PressureIn,WindDirection,WindDirectionDegrees,WindSpeedMPH,WindSpeedGustMPH,Humidity,HourlyPrecipIn,Conditions,Clouds,dailyrainin,SoftwareType,DateUTC
2013-08-05 00:00:00,87.8,72.2,32.35,SE,142,1.0,4.0,60,0.00,,SKC,0.00,VWS V14.01,2013-08-05 05:00:00,
2013-08-05 00:02:00,86.4,71.8,32.35,ESE,109,2.0,5.0,62,0.00,,SKC,0.00,VWS V14.01,2013-08-05 05:02:00,
2013-08-05 00:09:00,86.3,72.2,32.35,South,176,1.0,3.0,63,0.00,,SKC,0.00,VWS V14.01,2013-08-05 05:09:00,
2013-08-05 00:15:00,86.2,72.1,32.35,South,179,1.0,5.0,63,0.00,,SKC,0.00,VWS V14.01,2013-08-05 05:15:00,
2013-08-05 00:21:00,86.1,72.0,32.35,SE,135,1.0,5.0,63,0.00,,SKC,0.00,VWS V14.01,2013-08-05 05:21:00,
2013-08-05 00:27:00,86.0,72.4,32.35,ESE,111,2.0,5.0,64,0.00,,SKC,0.00,VWS V14.01,2013-08-05 05:27:00,
2013-08-05 00:30:00,87.2,72.1,32.35,SSE,157,2.0,4.0,61,0.00,,SKC,0.00,VWS V14.01,2013-08-05 05:30:00,
2013-08-05 00:33:00,85.9,72.3,32.35,SE,134,2.0,4.0,64,0.00,,SKC,0.00,VWS V14.01,2013-08-05 05:33:00,
2013-08-05 00:39:00,85.8,72.2,32.35,SE,132,2.0,4.0,64,0.00,,SKC,0.00,VWS V14.01,2013-08-05 05:39:00,
2013-08-05 00:45:00,85.7,72.1,32.35,SW,214,2.0,4.0,64,0.00,,SKC,0.00,VWS V14.01,2013-08-05 05:45:00,
2013-08-05 00:51:00,85.7,72.1,32.35,SSE,153,4.0,4.0,64,0.00,,SKC,0.00,VWS V14.01,2013-08-05 05:51:00,
2013-08-05 00:56:00,85.8,72.2,32.35,South,169,1.0,5.0,64,0.00,,SKC,0.00,VWS V14.01,2013-08-05 05:56:00,
2013-08-05 01:00:00,86.4,71.8,32.35,ESE,109,2.0,5.0,62,0.00,,SKC,0.00,VWS V14.01,2013-08-05 06:00:00,
2013-08-05 01:03:00,85.9,72.3,32.35,SSE,152,3.0,5.0,64,0.00,,SKC,0.00,VWS V14.01,2013-08-05 06:03:00,
2013-08-05 01:09:00,86.0,72.4,32.35,SSE,157,3.0,7.0,64,0.00,,SKC,0.00,VWS V14.01,2013-08-05 06:09:00,
2013-08-05 01:15:00,86.2,72.6,32.35,SE,140,0.0,7.0,64,0.00,,SKC,0.00,VWS V14.01,2013-08-05 06:15:00,
2013-08-05 01:21:00,86.3,72.7,32.35,SSE,163,2.0,7.0,64,0.00,,SKC,0.00,VWS V14.01,2013-08-05 06:21:00,
2013-08-05 01:27:00,86.2,72.6,32.35,ESE,105,5.0,7.0,64,0.00,,SKC,0.00,VWS V14.01,2013-08-05 06:27:00,
2013-08-05 01:30:00,85.9,72.3,32.35,SE,134,1.0,5.0,64,0.00,,SKC,0.00,VWS V14.01,2013-08-05 06:30:00,
2013-08-05 01:33:00,86.2,72.6,32.35,South,176,2.0,7.0,64,0.00,,SKC,0.00,VWS V14.01,2013-08-05 06:33:00,
2013-08-05 01:39:00,86.2,72.6,32.35,South,169,5.0,8.0,64,0.00,,SKC,0.00,VWS V14.01,2013-08-05 06:39:00,
2013-08-05 01:45:00,86.1,72.5,32.35,SE,146,5.0,9.0,64,0.00,,SKC,0.00,VWS V14.01,2013-08-05 06:45:00,
2013-08-05 01:51:00,86.1,72.5,32.35,SSE,166,5.0,9.0,64,0.00,,SKC,0.00,VWS V14.01,2013-08-05 06:51:00,
2013-08-05 01:57:00,86.0,72.9,32.35,WSW,248,9.0,11.0,65,0.00,,SKC,0.00,VWS V14.01,2013-08-05 06:57:00,
2013-08-05 02:00:00,85.9,72.3,32.35,East,101,5.0,5.0,64,0.00,,SKC,0.00,VWS V14.01,2013-08-05 07:00:00,
2013-08-05 02:03:00,86.0,72.9,32.35,SSE,161,1.0,8.0,65,0.00,,SKC,0.00,VWS V14.01,2013-08-05 07:03:00,
2013-08-05 02:09:00,86.0,72.9,32.35,South,171,10.0,10.0,65,0.00,,SKC,0.00,VWS V14.01,2013-08-05 07:09:00,
2013-08-05 02:15:00,86.0,72.9,32.35,South,173,4.0,10.0,65,0.00,,SKC,0.00,VWS V14.01,2013-08-05 07:15:00,
2013-08-05 02:21:00,86.0,73.3,32.35,SE,144,4.0,10.0,66,0.00,,SKC,0.00,VWS V14.01,2013-08-05 07:21:00,
2013-08-05 02:27:00,85.9,73.2,32.35,South,174,6.0,10.0,66,0.00,,SKC,0.00,VWS V14.01,2013-08-05 07:27:00,
2013-08-05 02:30:00,86.2,72.6,32.35,SSE,150,6.0,7.0,64,0.00,,SKC,0.00,VWS V14.01,2013-08-05 07:30:00,
2013-08-05 02:33:00,85.9,73.2,32.35,SSE,161,1.0,6.0,66,0.00,,SKC,0.00,VWS V14.01,2013-08-05 07:33:00,
2013-08-05 02:39:00,85.9,73.2,32.35,South,178,3.0,8.0,66,0.00,,SKC,0.00,VWS V14.01,2013-08-05 07:39:00,
2013-08-05 02:45:00,85.9,73.2,32.35,South,186,4.0,9.0,66,0.00,,SKC,0.00,VWS V14.01,2013-08-05 07:45:00,
2013-08-05 02:51:00,85.8,73.1,32.35,SE,130,4.0,9.0,66,0.00,,SKC,0.00,VWS V14.01,2013-08-05 07:51:00,
2013-08-05 02:57:00,85.7,73.5,32.35,SE,134,7.0,9.0,67,0.00,,SKC,0.00,VWS V14.01,2013-08-05 07:57:00,
2013-08-05 03:00:00,86.0,72.9,32.35,SW,219,6.0,11.0,65,0.00,,SKC,0.00,VWS V14.01,2013-08-05 08:00:00,
2013-08-05 03:03:00,85.7,73.5,32.35,SSW,196,7.0,7.0,67,0.00,,SKC,0.00,VWS V14.01,2013-08-05 08:03:00,
2013-08-05 03:09:00,85.6,73.4,32.35,South,184,3.0,9.0,67,0.00,,SKC,0.00,VWS V14.01,2013-08-05 08:09:00,
2013-08-05 03:15:00,85.4,73.6,32.35,SSW,205,3.0,9.0,68,0.00,,SKC,0.00,VWS V14.01,2013-08-05 08:15:00,
2013-08-05 03:22:00,85.3,73.6,32.35,SSW,209,4.0,9.0,68,0.00,,SKC,0.00,VWS V14.01,2013-08-05 08:22:00,
2013-08-05 03:27:00,85.1,73.4,32.35,SSE,161,4.0,9.0,68,0.00,,SKC,0.00,VWS V14.01,2013-08-05 08:27:00,
2013-08-05 03:30:00,85.9,73.2,32.35,SSW,205,3.0,10.0,66,0.00,,SKC,0.00,VWS V14.01,2013-08-05 08:30:00,
2013-08-05 03:34:00,85.0,73.7,32.35,South,173,3.0,7.0,69,0.00,,SKC,0.00,VWS V14.01,2013-08-05 08:34:00,
2013-08-05 03:43:00,85.0,73.7,32.35,SSW,192,7.0,9.0,69,0.00,,SKC,0.00,VWS V14.01,2013-08-05 08:43:00,
2013-08-05 03:49:00,84.9,73.6,32.35,SSW,202,2.0,10.0,69,0.00,,SKC,0.00,VWS V14.01,2013-08-05 08:49:00,
2013-08-05 03:58:00,84.8,73.5,32.35,SE,132,5.0,10.0,69,0.00,,SKC,0.00,VWS V14.01,2013-08-05 08:58:00,
2013-08-05 04:00:00,85.7,73.5,32.35,South,171,2.0,9.0,67,0.00,,SKC,0.00,VWS V14.01,2013-08-05 09:00:00,
2013-08-05 04:04:00,84.8,73.9,32.35,SSW,202,7.0,8.0,70,0.00,,SKC,0.00,VWS V14.01,2013-08-05 09:04:00,
2013-08-05 04:13:00,84.6,73.7,32.35,SSW,209,4.0,9.0,70,0.00,,SKC,0.00,VWS V14.01,2013-08-05 09:13:00,
2013-08-05 04:20:00,84.5,73.7,32.35,SSW,209,5.0,9.0,70,0.00,,SKC,0.00,VWS V14.01,2013-08-05 09:20:00,
2013-08-05 04:26:00,84.5,73.7,32.35,SW,217,4.0,10.0,70,0.00,,SKC,0.00,VWS V14.01,2013-08-05 09:26:00,
2013-08-05 04:30:00,85.1,73.4,32.35,SW,215,4.0,9.0,68,0.00,,SKC,0.00,VWS V14.01,2013-08-05 09:30:00,
2013-08-05 04:31:00,84.4,73.6,32.35,SW,227,3.0,10.0,70,0.00,,SKC,0.00,VWS V14.01,2013-08-05 09:31:00,
2013-08-05 04:38:00,84.3,73.5,32.35,South,186,3.0,7.0,70,0.00,,SKC,0.00,VWS V14.01,2013-08-05 09:38:00,
2013-08-05 04:44:00,84.2,73.8,32.35,South,180,4.0,8.0,71,0.00,,SKC,0.00,VWS V14.01,2013-08-05 09:44:00,
2013-08-05 04:50:00,84.1,73.7,32.35,SW,236,4.0,9.0,71,0.00,,SKC,0.00,VWS V14.01,2013-08-05 09:50:00,
2013-08-05 04:59:00,83.9,73.5,32.35,South,172,1.0,9.0,71,0.00,,SKC,0.00,VWS V14.01,2013-08-05 09:59:00,
2013-08-05 05:00:00,84.8,73.5,32.35,South,178,4.0,10.0,69,0.00,,SKC,0.00,VWS V14.01,2013-08-05 10:00:00,
2013-08-05 05:05:00,83.8,73.4,32.35,SSW,192,6.0,7.0,71,0.00,,SKC,0.00,VWS V14.01,2013-08-05 10:05:00,
2013-08-05 05:14:00,83.7,73.7,32.35,West,260,4.0,11.0,72,0.00,,SKC,0.00,VWS V14.01,2013-08-05 10:14:00,
2013-08-05 05:23:00,83.5,73.5,32.35,SSW,207,4.0,11.0,72,0.00,,SKC,0.00,VWS V14.01,2013-08-05 10:23:00,
2013-08-05 05:30:00,83.4,73.4,32.35,SSE,154,3.0,11.0,72,0.00,,SKC,0.00,VWS V14.01,2013-08-05 10:30:00,
2013-08-05 05:39:00,83.2,73.2,32.35,SSW,200,7.0,8.0,72,0.00,,SKC,0.00,VWS V14.01,2013-08-05 10:39:00,
2013-08-05 05:45:00,83.2,73.2,32.35,SSW,192,2.0,9.0,72,0.00,,SKC,0.00,VWS V14.01,2013-08-05 10:45:00,
2013-08-05 05:51:00,83.0,73.1,32.35,WSW,245,7.0,9.0,72,0.00,,SKC,0.00,VWS V14.01,2013-08-05 10:51:00,
2013-08-05 06:00:00,82.9,73.4,32.35,South,185,4.0,9.0,73,0.00,,SKC,0.00,VWS V14.01,2013-08-05 11:00:00,
2013-08-05 06:12:00,82.7,73.2,32.35,South,188,2.0,8.0,73,0.00,,SKC,0.00,VWS V14.01,2013-08-05 11:12:00,
2013-08-05 06:18:00,82.6,73.1,32.35,SSW,192,5.0,8.0,73,0.00,,SKC,0.00,VWS V14.01,2013-08-05 11:18:00,
2013-08-05 06:24:00,82.5,73.0,32.35,SSW,200,8.0,8.0,73,0.00,,SKC,0.00,VWS V14.01,2013-08-05 11:24:00,
2013-08-05 06:30:00,83.3,73.3,32.35,South,191,7.0,11.0,72,0.00,,SKC,0.00,VWS V14.01,2013-08-05 11:30:00,
2013-08-05 06:32:00,82.3,72.8,32.35,SSW,204,4.0,9.0,73,0.00,,SKC,0.00,VWS V14.01,2013-08-05 11:32:00,
2013-08-05 06:37:00,82.2,72.7,32.35,SSW,192,5.0,8.0,73,0.00,,SKC,0.00,VWS V14.01,2013-08-05 11:37:00,
2013-08-05 06:43:00,82.1,72.6,32.35,SSW,199,7.0,9.0,73,0.00,,SKC,0.00,VWS V14.01,2013-08-05 11:43:00,
2013-08-05 06:48:00,82.1,72.6,32.35,South,187,7.0,9.0,73,0.00,,SKC,0.00,VWS V14.01,2013-08-05 11:48:00,
2013-08-05 06:55:00,82.0,72.5,32.35,SSW,193,4.0,10.0,73,0.00,,SKC,0.00,VWS V14.01,2013-08-05 11:55:00,
2013-08-05 07:00:00,82.9,73.4,32.35,SSW,195,7.0,10.0,73,0.00,,SKC,0.00,VWS V14.01,2013-08-05 12:00:00,
2013-08-05 07:01:00,81.9,72.4,32.35,SSE,166,3.0,10.0,73,0.00,,SKC,0.00,VWS V14.01,2013-08-05 12:01:00,
2013-08-05 07:07:00,81.9,72.4,32.35,WSW,255,2.0,6.0,73,0.00,,SKC,0.00,VWS V14.01,2013-08-05 12:07:00,
2013-08-05 07:13:00,81.8,72.3,32.35,SW,219,2.0,6.0,73,0.00,,SKC,0.00,VWS V14.01,2013-08-05 12:13:00,
2013-08-05 07:19:00,81.9,72.4,32.35,SW,214,5.0,7.0,73,0.00,,SKC,0.00,VWS V14.01,2013-08-05 12:19:00,
2013-08-05 07:25:00,82.0,72.1,32.35,South,173,1.0,8.0,72,0.00,,SKC,0.00,VWS V14.01,2013-08-05 12:25:00,
2013-08-05 07:30:00,82.3,72.8,32.35,SSW,204,4.0,9.0,73,0.00,,SKC,0.00,VWS V14.01,2013-08-05 12:30:00,
2013-08-05 07:31:00,82.0,72.1,26.64,SSW,199,4.0,8.0,72,0.00,,SKC,0.00,VWS V14.01,2013-08-05 12:31:00,
2013-08-05 07:37:00,82.1,72.2,26.64,SW,215,6.0,7.0,72,0.00,,SKC,0.00,VWS V14.01,2013-08-05 12:37:00,
2013-08-05 07:43:00,82.2,71.9,26.64,SW,228,5.0,7.0,71,0.00,,SKC,0.00,VWS V14.01,2013-08-05 12:43:00,
2013-08-05 07:49:00,82.2,71.9,26.64,South,190,3.0,9.0,71,0.00,,SKC,0.00,VWS V14.01,2013-08-05 12:49:00,
2013-08-05 07:55:00,82.2,71.9,26.64,SSW,202,3.0,9.0,71,0.00,,SKC,0.00,VWS V14.01,2013-08-05 12:55:00,
2013-08-05 08:00:00,81.9,72.4,32.35,SSE,148,2.0,10.0,73,0.00,,SKC,0.00,VWS V14.01,2013-08-05 13:00:00,
2013-08-05 08:01:00,82.3,72.0,26.64,SW,227,3.0,9.0,71,0.00,,SKC,0.00,VWS V14.01,2013-08-05 13:01:00,
2013-08-05 08:07:00,82.5,72.2,26.64,SSW,200,2.0,5.0,71,0.00,,SKC,0.00,VWS V14.01,2013-08-05 13:07:00,
2013-08-05 08:13:00,82.7,72.3,26.64,WSW,249,2.0,8.0,71,0.00,,SKC,0.00,VWS V14.01,2013-08-05 13:13:00,
2013-08-05 08:22:00,83.0,72.6,26.64,SW,218,4.0,8.0,71,0.00,,SKC,0.00,VWS V14.01,2013-08-05 13:22:00,
2013-08-05 08:29:00,83.1,72.7,26.64,SW,221,2.0,8.0,71,0.00,,SKC,0.00,VWS V14.01,2013-08-05 13:29:00,
2013-08-05 08:30:00,82.0,72.1,26.64,SSW,209,6.0,8.0,72,0.00,,SKC,0.00,VWS V14.01,2013-08-05 13:30:00,
2013-08-05 08:35:00,83.1,72.3,26.64,SSE,164,4.0,8.0,70,0.00,,SKC,0.00,VWS V14.01,2013-08-05 13:35:00,
2013-08-05 08:40:00,83.2,72.4,26.64,West,281,2.0,8.0,70,0.00,,SKC,0.00,VWS V14.01,2013-08-05 13:40:00,
2013-08-05 08:47:00,83.4,72.6,26.64,SSW,192,3.0,8.0,70,0.00,,SKC,0.00,VWS V14.01,2013-08-05 13:47:00,
2013-08-05 08:53:00,83.4,72.2,26.64,SSW,193,6.0,9.0,69,0.00,,SKC,0.00,VWS V14.01,2013-08-05 13:53:00,
2013-08-05 09:00:00,82.3,72.0,26.64,SW,235,3.0,9.0,71,0.00,,SKC,0.00,VWS V14.01,2013-08-05 14:00:00,
2013-08-05 09:01:00,83.8,72.6,26.64,SSE,165,4.0,9.0,69,0.00,,SKC,0.00,VWS V14.01,2013-08-05 14:01:00,
2013-08-05 09:08:00,84.1,72.8,26.64,SSW,193,5.0,9.0,69,0.00,,SKC,0.00,VWS V14.01,2013-08-05 14:08:00,
2013-08-05 09:14:00,84.4,72.2,26.64,South,188,4.0,9.0,67,0.00,,SKC,0.00,VWS V14.01,2013-08-05 14:14:00,
2013-08-05 09:20:00,84.6,72.4,26.64,SSW,209,10.0,10.0,67,0.00,,SKC,0.00,VWS V14.01,2013-08-05 14:20:00,
2013-08-05 09:26:00,84.7,71.6,26.64,SSE,156,2.0,11.0,65,0.00,,SKC,0.00,VWS V14.01,2013-08-05 14:26:00,
2013-08-05 09:30:00,83.1,72.7,26.64,SSW,202,5.0,8.0,71,0.00,,SKC,0.00,VWS V14.01,2013-08-05 14:30:00,
2013-08-05 09:31:00,84.9,71.8,26.64,WNW,292,5.0,11.0,65,0.00,,SKC,0.00,VWS V14.01,2013-08-05 14:31:00,
2013-08-05 09:42:00,85.4,71.8,26.64,South,183,3.0,10.0,64,0.00,,SKC,0.00,VWS V14.01,2013-08-05 14:42:00,
2013-08-05 09:51:00,85.7,71.7,26.64,SSW,198,4.0,11.0,63,0.00,,SKC,0.00,VWS V14.01,2013-08-05 14:51:00,
2013-08-05 09:57:00,86.0,71.5,26.64,WNW,284,5.0,11.0,62,0.00,,SKC,0.00,VWS V14.01,2013-08-05 14:57:00,
2013-08-05 10:00:00,83.8,72.6,26.64,SSE,165,4.0,9.0,69,0.00,,SKC,0.00,VWS V14.01,2013-08-05 15:00:00,
2013-08-05 10:03:00,86.3,71.8,26.64,SSW,207,5.0,6.0,62,0.00,,SKC,0.00,VWS V14.01,2013-08-05 15:03:00,
2013-08-05 10:09:00,86.7,71.7,26.64,SSW,192,9.0,10.0,61,0.00,,SKC,0.00,VWS V14.01,2013-08-05 15:09:00,
2013-08-05 10:15:00,87.0,71.9,26.64,SSW,207,4.0,11.0,61,0.00,,SKC,0.00,VWS V14.01,2013-08-05 15:15:00,
2013-08-05 10:24:00,87.4,71.8,26.64,SSE,165,1.0,11.0,60,0.00,,SKC,0.00,VWS V14.01,2013-08-05 15:24:00,
2013-08-05 10:30:00,87.9,71.3,26.64,SSW,201,2.0,12.0,58,0.00,,SKC,0.00,VWS V14.01,2013-08-05 15:30:00,
2013-08-05 10:36:00,88.1,71.0,26.64,SSW,211,7.0,10.0,57,0.00,,SKC,0.00,VWS V14.01,2013-08-05 15:36:00,
2013-08-05 10:42:00,88.1,69.9,26.64,South,182,6.0,10.0,55,0.00,,SKC,0.00,VWS V14.01,2013-08-05 15:42:00,
2013-08-05 10:48:00,88.4,70.2,26.64,West,273,5.0,11.0,55,0.00,,SKC,0.00,VWS V14.01,2013-08-05 15:48:00,
2013-08-05 11:00:00,86.2,71.7,26.64,SW,223,4.0,11.0,62,0.00,,SKC,0.00,VWS V14.01,2013-08-05 16:00:00,
2013-08-05 11:05:00,89.5,70.1,26.64,South,170,6.0,10.0,53,0.00,,SKC,0.00,VWS V14.01,2013-08-05 16:05:00,
2013-08-05 11:11:00,90.0,70.0,26.64,SSE,154,6.0,11.0,52,0.00,,SKC,0.00,VWS V14.01,2013-08-05 16:11:00,
2013-08-05 11:17:00,90.2,69.1,26.64,SW,225,2.0,11.0,50,0.00,,SKC,0.00,VWS V14.01,2013-08-05 16:17:00,
2013-08-05 11:23:00,90.8,69.6,26.64,South,191,7.0,11.0,50,0.00,,SKC,0.00,VWS V14.01,2013-08-05 16:23:00,
2013-08-05 11:29:00,91.3,68.9,26.64,SE,144,3.0,11.0,48,0.00,,SKC,0.00,VWS V14.01,2013-08-05 16:29:00,
2013-08-05 11:30:00,88.0,71.9,26.64,SSW,209,7.0,12.0,59,0.00,,SKC,0.00,VWS V14.01,2013-08-05 16:30:00,
2013-08-05 11:39:00,91.6,69.2,26.64,SSW,206,7.0,11.0,48,0.00,,SKC,0.00,VWS V14.01,2013-08-05 16:39:00,
2013-08-05 11:45:00,91.9,69.4,26.64,SW,232,5.0,11.0,48,0.00,,SKC,0.00,VWS V14.01,2013-08-05 16:45:00,
2013-08-05 11:54:00,92.1,69.0,26.64,SSW,199,4.0,11.0,47,0.00,,SKC,0.00,VWS V14.01,2013-08-05 16:54:00,
2013-08-05 12:00:00,92.3,67.9,26.64,South,172,4.0,11.0,45,0.00,,SKC,0.00,VWS V14.01,2013-08-05 17:00:00,
2013-08-05 12:12:00,93.1,68.6,26.64,SSE,159,7.0,11.0,45,0.00,,SKC,0.00,VWS V14.01,2013-08-05 17:12:00,
2013-08-05 12:18:00,93.6,68.4,26.64,SW,223,10.0,11.0,44,0.00,,SKC,0.00,VWS V14.01,2013-08-05 17:18:00,
2013-08-05 12:24:00,93.7,68.5,26.64,SW,221,5.0,11.0,44,0.00,,SKC,0.00,VWS V14.01,2013-08-05 17:24:00,
2013-08-05 12:30:00,91.5,69.7,26.64,SSE,166,4.0,11.0,49,0.00,,SKC,0.00,VWS V14.01,2013-08-05 17:30:00,
2013-08-05 12:31:00,93.8,67.2,26.64,SW,225,5.0,15.0,42,0.00,,SKC,0.00,VWS V14.01,2013-08-05 17:31:00,
2013-08-05 12:37:00,94.0,68.8,26.64,SSW,192,7.0,9.0,44,0.00,,SKC,0.00,VWS V14.01,2013-08-05 17:37:00,
2013-08-05 12:43:00,94.3,68.4,26.64,SSW,210,10.0,10.0,43,0.00,,SKC,0.00,VWS V14.01,2013-08-05 17:43:00,
2013-08-05 12:52:00,94.2,68.3,26.64,SW,216,6.0,12.0,43,0.00,,SKC,0.00,VWS V14.01,2013-08-05 17:52:00,
2013-08-05 13:00:00,92.4,68.6,26.64,South,174,7.0,11.0,46,0.00,,SKC,0.00,VWS V14.01,2013-08-05 18:00:00,
2013-08-05 13:02:00,94.7,68.1,26.64,SSW,197,7.0,13.0,42,0.00,,SKC,0.00,VWS V14.01,2013-08-05 18:02:00,
2013-08-05 13:08:00,95.1,67.7,26.64,WSW,242,5.0,11.0,41,0.00,,SKC,0.00,VWS V14.01,2013-08-05 18:08:00,
2013-08-05 13:14:00,95.5,68.1,26.64,SW,219,6.0,11.0,41,0.00,,SKC,0.00,VWS V14.01,2013-08-05 18:14:00,
2013-08-05 13:23:00,95.6,68.2,26.64,SSE,161,5.0,12.0,41,0.00,,SKC,0.00,VWS V14.01,2013-08-05 18:23:00,
2013-08-05 13:29:00,95.8,68.3,26.64,South,172,10.0,12.0,41,0.00,,SKC,0.00,VWS V14.01,2013-08-05 18:29:00,
2013-08-05 13:30:00,93.8,67.9,26.64,SSW,203,7.0,15.0,43,0.00,,SKC,0.00,VWS V14.01,2013-08-05 18:30:00,
2013-08-05 13:35:00,96.0,67.8,26.64,West,276,8.0,10.0,40,0.00,,SKC,0.00,VWS V14.01,2013-08-05 18:35:00,
2013-08-05 13:44:00,96.4,67.4,26.64,SSW,202,4.0,13.0,39,0.00,,SKC,0.00,VWS V14.01,2013-08-05 18:44:00,
2013-08-05 13:53:00,96.5,68.2,26.64,South,180,2.0,13.0,40,0.00,,SKC,0.00,VWS V14.01,2013-08-05 18:53:00,
2013-08-05 13:59:00,97.1,68.0,26.64,West,264,2.0,13.0,39,0.00,,SKC,0.00,VWS V14.01,2013-08-05 18:59:00,
2013-08-05 14:00:00,94.7,68.1,26.64,SSW,197,7.0,13.0,42,0.00,,SKC,0.00,VWS V14.01,2013-08-05 19:00:00,
2013-08-05 14:05:00,97.5,67.6,26.64,SSW,200,2.0,9.0,38,0.00,,SKC,0.00,VWS V14.01,2013-08-05 19:05:00,
2013-08-05 14:11:00,97.3,67.5,26.64,South,177,3.0,12.0,38,0.00,,SKC,0.00,VWS V14.01,2013-08-05 19:11:00,
2013-08-05 14:17:00,97.4,67.6,26.64,SW,214,5.0,12.0,38,0.00,,SKC,0.00,VWS V14.01,2013-08-05 19:17:00,
2013-08-05 14:24:00,97.6,67.7,26.64,WSW,238,6.0,12.0,38,0.00,,SKC,0.00,VWS V14.01,2013-08-05 19:24:00,
2013-08-05 14:30:00,98.1,67.4,26.64,SW,225,7.0,12.0,37,0.00,,SKC,0.00,VWS V14.01,2013-08-05 19:30:00,
2013-08-05 14:36:00,98.0,67.3,26.64,SW,232,9.0,10.0,37,0.00,,SKC,0.00,VWS V14.01,2013-08-05 19:36:00,
2013-08-05 14:42:00,97.8,67.9,26.64,SSW,198,6.0,12.0,38,0.00,,SKC,0.00,VWS V14.01,2013-08-05 19:42:00,
2013-08-05 14:48:00,97.9,67.2,26.64,SSW,194,6.0,12.0,37,0.00,,SKC,0.00,VWS V14.01,2013-08-05 19:48:00,
2013-08-05 14:57:00,98.5,67.8,26.64,West,261,8.0,12.0,37,0.00,,SKC,0.00,VWS V14.01,2013-08-05 19:57:00,
2013-08-05 15:00:00,97.3,68.2,26.64,South,187,1.0,13.0,39,0.00,,SKC,0.00,VWS V14.01,2013-08-05 20:00:00,
2013-08-05 15:06:00,98.9,67.3,26.64,SSW,202,7.0,8.0,36,0.00,,SKC,0.00,VWS V14.01,2013-08-05 20:06:00,
2013-08-05 15:12:00,99.1,66.7,26.64,South,184,5.0,9.0,35,0.00,,SKC,0.00,VWS V14.01,2013-08-05 20:12:00,
2013-08-05 15:18:00,99.1,67.5,26.64,South,173,2.0,9.0,36,0.00,,SKC,0.00,VWS V14.01,2013-08-05 20:18:00,
2013-08-05 15:25:00,99.3,67.7,26.64,SSW,202,5.0,9.0,36,0.00,,SKC,0.00,VWS V14.01,2013-08-05 20:25:00,
2013-08-05 15:30:00,98.1,68.2,26.64,SW,227,4.0,12.0,38,0.00,,SKC,0.00,VWS V14.01,2013-08-05 20:30:00,
2013-08-05 15:31:00,99.2,67.6,26.64,SSW,209,7.0,9.0,36,0.00,,SKC,0.00,VWS V14.01,2013-08-05 20:31:00,
2013-08-05 15:37:00,99.5,67.8,26.64,South,171,2.0,9.0,36,0.00,,SKC,0.00,VWS V14.01,2013-08-05 20:37:00,
2013-08-05 15:43:00,99.7,68.8,26.64,SSW,202,6.0,9.0,37,0.00,,SKC,0.00,VWS V14.01,2013-08-05 20:43:00,
2013-08-05 15:49:00,100.2,68.4,26.64,WNW,299,9.0,9.0,36,0.00,,SKC,0.00,VWS V14.01,2013-08-05 20:49:00,
2013-08-05 16:00:00,98.6,67.0,26.64,SSW,192,7.0,12.0,36,0.00,,SKC,0.00,VWS V14.01,2013-08-05 21:00:00,
2013-08-05 16:04:00,100.0,67.5,26.64,SSW,207,8.0,9.0,35,0.00,,SKC,0.00,VWS V14.01,2013-08-05 21:04:00,
2013-08-05 16:10:00,100.1,67.5,26.64,West,277,3.0,9.0,35,0.00,,SKC,0.00,VWS V14.01,2013-08-05 21:10:00,
2013-08-05 16:20:00,100.5,67.9,26.64,West,275,6.0,9.0,35,0.00,,SKC,0.00,VWS V14.01,2013-08-05 21:20:00,
2013-08-05 16:26:00,100.3,66.9,26.64,SW,217,4.0,9.0,34,0.00,,SKC,0.00,VWS V14.01,2013-08-05 21:26:00,
2013-08-05 16:30:00,99.2,66.8,26.64,West,265,7.0,9.0,35,0.00,,SKC,0.00,VWS V14.01,2013-08-05 21:30:00,
2013-08-05 16:32:00,100.5,67.9,26.64,SW,229,4.0,9.0,35,0.00,,SKC,0.00,VWS V14.01,2013-08-05 21:32:00,
2013-08-05 16:38:00,100.7,67.2,26.64,SSW,195,4.0,7.0,34,0.00,,SKC,0.00,VWS V14.01,2013-08-05 21:38:00,
2013-08-05 16:47:00,100.5,67.9,26.64,South,188,3.0,7.0,35,0.00,,SKC,0.00,VWS V14.01,2013-08-05 21:47:00,
2013-08-05 16:53:00,100.6,67.1,26.64,SW,216,3.0,9.0,34,0.00,,SKC,0.00,VWS V14.01,2013-08-05 21:53:00,
2013-08-05 16:59:00,100.3,67.7,26.64,SSW,198,11.0,11.0,35,0.00,,SKC,0.00,VWS V14.01,2013-08-05 21:59:00,
2013-08-05 17:00:00,100.0,68.3,26.64,SW,225,6.0,10.0,36,0.00,,SKC,0.00,VWS V14.01,2013-08-05 22:00:00,
2013-08-05 17:05:00,100.2,67.6,26.64,SW,227,5.0,9.0,35,0.00,,SKC,0.00,VWS V14.01,2013-08-05 22:05:00,
2013-08-05 17:11:00,100.1,67.5,26.64,SW,219,8.0,11.0,35,0.00,,SKC,0.00,VWS V14.01,2013-08-05 22:11:00,
2013-08-05 17:21:00,100.0,68.3,26.64,WNW,285,8.0,11.0,36,0.00,,SKC,0.00,VWS V14.01,2013-08-05 22:21:00,
2013-08-05 17:27:00,100.2,66.8,26.64,SSW,203,7.0,12.0,34,0.00,,SKC,0.00,VWS V14.01,2013-08-05 22:27:00,
2013-08-05 17:30:00,100.5,67.9,26.64,SW,229,4.0,9.0,35,0.00,,SKC,0.00,VWS V14.01,2013-08-05 22:30:00,
2013-08-05 17:36:00,100.1,67.5,26.64,SSW,213,3.0,10.0,35,0.00,,SKC,0.00,VWS V14.01,2013-08-05 22:36:00,
2013-08-05 17:42:00,100.0,67.5,26.64,WSW,257,6.0,10.0,35,0.00,,SKC,0.00,VWS V14.01,2013-08-05 22:42:00,
2013-08-05 17:48:00,100.1,67.5,26.64,West,277,3.0,10.0,35,0.00,,SKC,0.00,VWS V14.01,2013-08-05 22:48:00,
2013-08-05 18:00:00,100.2,67.6,26.64,WNW,282,5.0,10.0,35,0.00,,SKC,0.00,VWS V14.01,2013-08-05 23:00:00,
2013-08-05 18:07:00,100.0,67.5,26.64,SW,224,7.0,10.0,35,0.00,,SKC,0.00,VWS V14.01,2013-08-05 23:07:00,
2013-08-05 18:16:00,99.8,67.3,26.64,SSW,196,4.0,10.0,35,0.00,,SKC,0.00,VWS V14.01,2013-08-05 23:16:00,
2013-08-05 18:22:00,99.7,68.0,26.64,WSW,239,6.0,10.0,36,0.00,,SKC,0.00,VWS V14.01,2013-08-05 23:22:00,
2013-08-05 18:30:00,100.1,66.7,26.64,SW,235,7.0,12.0,34,0.00,,SKC,0.00,VWS V14.01,2013-08-05 23:30:00,
2013-08-05 18:31:00,99.8,67.3,26.64,SSW,211,6.0,10.0,35,0.00,,SKC,0.00,VWS V14.01,2013-08-05 23:31:00,
2013-08-05 18:37:00,99.4,68.5,26.64,South,190,7.0,8.0,37,0.00,,SKC,0.00,VWS V14.01,2013-08-05 23:37:00,
2013-08-05 18:46:00,99.1,67.5,26.64,WSW,250,5.0,8.0,36,0.00,,SKC,0.00,VWS V14.01,2013-08-05 23:46:00,
2013-08-05 18:56:00,98.7,67.9,26.64,SSW,202,5.0,10.0,37,0.00,,SKC,0.00,VWS V14.01,2013-08-05 23:56:00,
2013-08-05 19:00:00,100.2,67.6,26.64,South,191,4.0,10.0,35,0.00,,SKC,0.00,VWS V14.01,2013-08-06 00:00:00,
2013-08-05 19:02:00,98.6,67.1,26.64,South,182,8.0,10.0,36,0.00,,SKC,0.00,VWS V14.01,2013-08-06 00:02:00,
2013-08-05 19:08:00,98.3,66.8,26.64,SSW,213,6.0,9.0,36,0.00,,SKC,0.00,VWS V14.01,2013-08-06 00:08:00,
2013-08-05 19:17:00,98.2,67.5,26.64,South,186,2.0,9.0,37,0.00,,SKC,0.00,VWS V14.01,2013-08-06 00:17:00,
2013-08-05 19:23:00,97.9,67.2,26.64,SW,232,3.0,9.0,37,0.00,,SKC,0.00,VWS V14.01,2013-08-06 00:23:00,
2013-08-05 19:29:00,97.8,67.1,26.64,SSW,198,3.0,9.0,37,0.00,,SKC,0.00,VWS V14.01,2013-08-06 00:29:00,
2013-08-05 19:30:00,99.8,67.3,26.64,SSW,211,7.0,10.0,35,0.00,,SKC,0.00,VWS V14.01,2013-08-06 00:30:00,
2013-08-05 19:35:00,97.6,67.0,26.64,South,184,5.0,7.0,37,0.00,,SKC,0.00,VWS V14.01,2013-08-06 00:35:00,
2013-08-05 19:47:00,97.2,66.6,26.64,South,180,1.0,7.0,37,0.00,,SKC,0.00,VWS V14.01,2013-08-06 00:47:00,
2013-08-05 19:53:00,96.9,66.3,26.64,SSE,160,2.0,7.0,37,0.00,,SKC,0.00,VWS V14.01,2013-08-06 00:53:00,
2013-08-05 20:00:00,96.7,66.9,26.64,SW,218,5.0,7.0,38,0.00,,SKC,0.00,VWS V14.01,2013-08-06 01:00:00,
2013-08-05 20:12:00,96.2,66.5,26.64,South,180,2.0,6.0,38,0.00,,SKC,0.00,VWS V14.01,2013-08-06 01:12:00,
2013-08-05 20:18:00,95.9,66.2,26.64,South,190,4.0,6.0,38,0.00,,SKC,0.00,VWS V14.01,2013-08-06 01:18:00,
2013-08-05 20:24:00,95.6,66.0,26.64,South,188,2.0,6.0,38,0.00,,SKC,0.00,VWS V14.01,2013-08-06 01:24:00,
2013-08-05 20:30:00,95.4,65.8,26.64,South,178,2.0,8.0,38,0.00,,SKC,0.00,VWS V14.01,2013-08-06 01:30:00,
2013-08-05 20:40:00,95.1,66.3,26.64,South,173,0.0,6.0,39,0.00,,SKC,0.00,VWS V14.01,2013-08-06 01:40:00,
2013-08-05 20:46:00,94.8,66.0,26.64,South,170,3.0,6.0,39,0.00,,SKC,0.00,VWS V14.01,2013-08-06 01:46:00,
2013-08-05 20:52:00,94.6,65.1,26.64,SSW,206,0.0,8.0,38,0.00,,SKC,0.00,VWS V14.01,2013-08-06 01:52:00,
2013-08-05 20:58:00,94.4,64.9,26.64,SSW,200,4.0,8.0,38,0.00,,SKC,0.00,VWS V14.01,2013-08-06 01:58:00,
2013-08-05 21:00:00,94.4,64.9,26.64,SSE,165,1.0,8.0,38,0.00,,SKC,0.00,VWS V14.01,2013-08-06 02:00:00,
2013-08-05 21:04:00,94.3,64.8,26.64,South,169,4.0,7.0,38,0.00,,SKC,0.00,VWS V14.01,2013-08-06 02:04:00,
2013-08-05 21:16:00,94.0,64.6,26.64,SSE,159,1.0,7.0,38,0.00,,SKC,0.00,VWS V14.01,2013-08-06 02:16:00,
2013-08-05 21:26:00,93.7,64.3,26.64,South,181,1.0,7.0,38,0.00,,SKC,0.00,VWS V14.01,2013-08-06 02:26:00,
2013-08-05 21:30:00,95.4,66.5,26.64,SSE,150,6.0,8.0,39,0.00,,SKC,0.00,VWS V14.01,2013-08-06 02:30:00,
2013-08-05 21:31:00,93.5,64.1,26.64,South,188,3.0,7.0,38,0.00,,SKC,0.00,VWS V14.01,2013-08-06 02:31:00,
2013-08-05 21:38:00,93.5,64.8,26.64,SSW,194,4.0,5.0,39,0.00,,SKC,0.00,VWS V14.01,2013-08-06 02:38:00,
2013-08-05 21:47:00,93.3,64.7,26.64,South,180,1.0,5.0,39,0.00,,SKC,0.00,VWS V14.01,2013-08-06 02:47:00,
2013-08-05 21:53:00,93.2,64.6,26.64,South,188,2.0,7.0,39,0.00,,SKC,0.00,VWS V14.01,2013-08-06 02:53:00,
2013-08-05 21:59:00,93.1,64.5,26.64,South,190,0.0,7.0,39,0.00,,SKC,0.00,VWS V14.01,2013-08-06 02:59:00,
2013-08-05 22:00:00,94.4,64.9,26.64,SSE,165,1.0,8.0,38,0.00,,SKC,0.00,VWS V14.01,2013-08-06 03:00:00,
2013-08-05 22:05:00,92.9,65.0,26.64,SSW,194,1.0,3.0,40,0.00,,SKC,0.00,VWS V14.01,2013-08-06 03:05:00,
2013-08-05 22:17:00,92.4,65.3,26.64,SSW,204,1.0,4.0,41,0.00,,SKC,0.00,VWS V14.01,2013-08-06 03:17:00,
2013-08-05 22:23:00,92.1,65.7,22.07,South,190,2.0,4.0,42,0.00,,SKC,0.00,VWS V14.01,2013-08-06 03:23:00,
2013-08-05 22:29:00,91.9,65.6,22.07,South,176,0.0,4.0,42,0.00,,SKC,0.00,VWS V14.01,2013-08-06 03:29:00,
2013-08-05 22:30:00,93.5,64.1,26.64,South,188,3.0,7.0,38,0.00,,SKC,0.00,VWS V14.01,2013-08-06 03:30:00,
2013-08-05 22:35:00,91.6,66.0,22.07,South,186,1.0,3.0,43,0.00,,SKC,0.00,VWS V14.01,2013-08-06 03:35:00,
2013-08-05 22:45:00,91.4,65.8,22.07,SSW,211,0.0,4.0,43,0.00,,SKC,0.00,VWS V14.01,2013-08-06 03:45:00,
2013-08-05 22:51:00,91.2,65.6,22.07,SSW,196,2.0,4.0,43,0.00,,SKC,0.00,VWS V14.01,2013-08-06 03:51:00,
2013-08-05 22:57:00,91.1,66.2,22.07,South,179,1.0,4.0,44,0.00,,SKC,0.00,VWS V14.01,2013-08-06 03:57:00,
2013-08-05 23:00:00,93.0,64.4,26.64,South,178,1.0,7.0,39,0.00,,SKC,0.00,VWS V14.01,2013-08-06 04:00:00,
2013-08-05 23:02:00,90.9,66.0,22.07,SSE,147,1.0,5.0,44,0.00,,SKC,0.00,VWS V14.01,2013-08-06 04:02:00,
2013-08-05 23:03:00,90.8,66.6,22.07,SSE,147,2.0,3.0,45,0.00,,SKC,0.00,VWS V14.01,2013-08-06 04:03:00,
2013-08-05 23:09:00,90.0,65.8,22.07,South,188,1.0,6.0,45,0.00,,SKC,0.00,VWS V14.01,2013-08-06 04:09:00,
2013-08-05 23:15:00,89.7,66.2,22.07,SSE,167,1.0,6.0,46,0.00,,SKC,0.00,VWS V14.01,2013-08-06 04:15:00,
2013-08-05 23:21:00,89.0,66.2,22.07,SSE,168,0.0,6.0,47,0.00,,SKC,0.00,VWS V14.01,2013-08-06 04:21:00,
2013-08-05 23:27:00,88.2,66.1,22.07,South,182,2.0,6.0,48,0.00,,SKC,0.00,VWS V14.01,2013-08-06 04:27:00,
2013-08-05 23:30:00,91.7,66.1,22.07,South,187,1.0,4.0,43,0.00,,SKC,0.00,VWS V14.01,2013-08-06 04:30:00,
2013-08-05 23:33:00,87.5,66.0,22.07,South,182,1.0,1.0,49,0.00,,SKC,0.00,VWS V14.01,2013-08-06 04:33:00,
2013-08-05 23:39:00,87.2,66.3,22.07,ESE,103,1.0,2.0,50,0.00,,SKC,0.00,VWS V14.01,2013-08-06 04:39:00,
2013-08-05 23:45:00,86.9,66.6,22.07,SE,145,1.0,2.0,51,0.00,,SKC,0.00,VWS V14.01,2013-08-06 04:45:00,
2013-08-05 23:51:00,86.7,66.4,22.07,South,178,2.0,3.0,51,0.00,,SKC,0.00,VWS V14.01,2013-08-06 04:51:00,
2013-08-05 23:57:00,86.6,66.3,22.07,South,177,0.0,3.0,51,0.00,,SKC,0.00,VWS V14.01,2013-08-06 04:57:00,